Location: Yecla
(38.6122°N, 1.1101°W)
Time: 11:20:54
(UTC+01:00)

ISS - Visible Passes

Search period start: 13 December 2018 00:00
Search period end: 23 December 2018 00:00
Orbit: 401 x 408 km, 51.6° (Epoch: 13 December)

Date Brightness Start Highest point End Pass type
(mag) Time Alt. Az. Time Alt. Az. Time Alt. Az.
13 Dec -0.8 19:43:00 10° W 19:45:02 16° SW 19:47:04 10° SSW visible
14 Dec -1.8 18:50:07 10° WNW 18:53:02 30° SW 18:55:56 10° SSE visible
16 Dec -0.3 18:43:28 10° WSW 18:44:51 12° SW 18:46:13 10° SSW visible
22 Dec -0.4 07:01:25 10° SSE 07:02:57 13° SE 07:04:30 10° E visible
